Theta_e
285 284 287 288 287 288 289 289 289 289 288 288 287 287 287 288 288 287 288 290 291 292 292 292 292 293 295 295 296 297 297 297 298 300 300 301 301 300 301 301 301 302 303 306 308 311 314 317 317 315 314 314
284 284 286 287 286 286 287 287 288 287 287 286 285 285 284 285 285 284 285 287 288 289 290 289 289 291 293 294 295 295 295 295 295 297 298 299 299 299 298 298 298 300 301 302 304 307 311 313 314 315 315 314
284 284 285 285 285 285 286 286 286 286 285 284 283 283 283 282 282 282 282 284 284 286 286 286 287 288 291 292 293 293 293 293 294 295 296 297 297 297 296 295 295 297 298 300 302 304 307 309 310 313 315 314
284 284 284 284 284 284 284 284 285 284 283 282 282 282 282 281 281 281 281 281 282 283 283 283 285 287 288 290 291 291 291 291 292 293 294 294 295 295 294 293 294 296 296 298 299 301 303 305 307 310 312 314
284 284 284 284 283 283 283 283 283 283 282 282 282 281 281 281 281 281 281 281 281 281 281 281 283 284 286 288 288 289 289 288 289 291 292 292 292 292 292 292 293 294 295 296 297 299 301 303 304 305 308 311
284 284 284 283 283 283 283 283 283 282 282 282 281 281 281 281 281 281 281 281 280 280 281 281 281 283 284 285 286 286 286 286 287 288 289 289 290 290 291 291 292 292 293 295 295 297 299 301 301 302 304 307
284 284 284 284 283 283 283 283 283 282 282 282 282 281 281 281 281 281 281 281 280 280 280 280 280 281 282 282 283 283 284 285 285 286 287 288 288 288 289 290 291 291 291 293 294 295 297 299 299 299 301 304
284 284 284 283 283 283 283 283 283 282 282 282 282 281 281 281 281 281 280 281 280 280 280 280 280 280 280 280 281 281 282 283 284 284 286 287 287 287 288 288 289 289 290 291 292 293 294 296 297 297 299 301
283 283 283 283 283 283 282 282 282 282 282 282 282 281 281 281 281 281 281 280 280 280 280 280 280 280 280 280 280 280 281 282 282 283 284 285 286 286 286 286 286 287 288 289 291 292 292 294 296 296 297 299
282 282 282 282 282 282 282 282 281 281 281 281 281 281 281 281 281 280 280 280 280 280 280 280 279 279 279 279 279 279 280 280 281 281 282 282 283 284 285 285 285 285 286 287 289 291 291 292 294 295 295 297
282 281 281 281 281 281 281 281 281 281 281 281 281 281 281 281 281 280 280 280 280 280 280 279 279 279 279 279 279 279 279 280 280 280 280 281 281 282 283 284 285 284 284 285 286 288 290 292 292 293 294 295
281 281 281 280 280 280 280 280 280 280 280 280 280 280 280 280 280 280 280 280 280 280 279 279 279 279 279 279 279 279 279 279 279 279 279 280 280 280 281 282 283 284 284 284 284 285 288 290 292 293 293 293
281 280 280 280 280 280 280 280 279 279 279 279 279 279 280 280 280 280 280 280 280 280 279 279 279 279 279 279 278 278 278 278 278 279 279 279 279 280 280 280 281 282 283 283 283 283 284 287 290 292 293 293
280 280 280 280 279 279 279 279 279 279 279 279 279 279 279 279 280 280 280 280 279 279 279 279 279 279 279 279 278 278 278 278 278 278 278 278 278 279 279 279 279 280 281 282 282 282 283 284 286 289 292 293
280 279 279 279 279 279 278 278 278 278 278 278 278 278 279 279 279 279 280 280 279 279 279 279 279 278 278 278 278 278 277 277 277 278 278 278 278 278 278 278 279 279 280 280 281 281 282 283 284 286 288 291
279 279 278 278 278 278 278 277 277 277 277 277 277 278 278 278 278 278 279 279 279 278 278 278 278 278 278 278 278 278 277 277 277 277 278 278 278 278 278 278 278 278 279 279 280 280 281 282 283 284 285 288
278 278 278 278 277 277 277 277 277 277 277 277 277 277 277 277 277 277 278 278 278 278 278 278 278 277 277 277 277 277 277 277 277 277 277 277 277 277 277 278 278 278 278 279 279 279 280 280 282 283 284 285
278 277 277 277 277 276 276 276 276 276 276 276 276 277 277 276 276 276 276 276 277 277 277 277 276 276 276 276 276 277 277 277 277 277 277 276 277 277 277 277 277 277 277 278 278 278 279 279 280 281 282 284
277 277 276 276 276 276 276 275 275 275 275 275 275 276 276 276 275 275 276 276 276 276 276 276 276 276 276 276 276 276 276 277 277 276 276 276 276 276 277 277 277 277 277 277 277 278 278 278 279 280 281 283
277 276 276 276 275 275 275 275 275 275 275 275 275 275 275 275 274 275 275 276 276 276 276 275 275 275 275 275 275 275 276 276 276 276 276 276 276 276 276 276 276 276 276 276 277 277 277 278 278 279 280 281
276 276 276 275 275 275 274 274 274 274 274 274 274 274 273 274 274 275 275 275 275 275 275 275 275 275 274 274 275 275 275 275 276 276 276 276 275 275 275 275 276 276 276 276 276 276 277 278 278 279 279 280
276 276 275 275 274 274 273 273 273 273 273 272 272 272 273 273 274 274 274 274 274 275 275 275 274 274 274 274 274 274 275 275 275 275 275 275 275 275 275 275 275 275 275 276 276 276 277 277 278 279 279 280
276 275 275 275 274 273 273 272 272 272 272 272 272 272 272 273 273 273 273 273 273 274 274 274 274 274 274 274 274 274 274 274 274 274 274 274 275 275 274 275 275 275 275 275 276 276 276 277 278 279 280 281
275 275 274 274 273 273 272 272 271 271 271 271 272 272 272 272 272 272 272 272 273 273 273 273 273 273 273 273 273 273 273 273 273 273 273 273 274 274 274 274 274 274 275 275 275 276 276 277 278 279 281 282
275 274 274 273 272 272 272 271 271 271 271 271 272 272 272 272 272 272 272 272 272 272 272 272 272 272 273 273 273 273 272 272 273 273 273 273 273 273 273 273 274 274 275 275 276 276 276 277 278 281 283 284
275 274 273 273 272 272 272 271 271 271 271 271 271 272 272 272 272 271 271 271 271 271 271 271 272 272 272 272 272 272 272 272 272 272 272 272 273 273 273 273 274 274 275 275 276 276 276 277 280 282 283 284
275 274 273 272 272 272 271 271 271 270 270 271 271 271 271 271 271 270 270 271 271 271 271 271 271 271 271 271 271 271 271 271 271 271 272 272 273 273 273 274 274 275 275 275 275 275 275 278 280 281 281 282
274 273 273 272 272 271 271 271 270 270 270 270 271 271 271 270 270 270 270 270 270 270 271 270 270 271 271 271 270 270 270 270 271 271 271 272 272 272 273 273 274 274 274 274 274 275 276 277 278 278 280 279
274 273 272 272 271 271 271 270 270 270 270 270 271 270 270 270 270 270 270 269 270 270 270 270 270 271 270 270 270 270 270 270 270 270 271 271 271 271 272 272 272 272 273 274 274 275 275 276 276 277 278 277
274 273 272 271 271 271 270 270 270 270 270 270 270 270 270 270 270 269 269 269 270 270 270 270 270 270 270 270 269 270 270 270 270 270 271 270 270 271 271 271 271 271 273 274 274 275 274 275 275 276 276 275
274 273 272 271 271 271 270 270 270 270 270 269 269 270 270 270 269 269 269 269 270 270 270 270 270 269 269 269 269 269 270 270 270 270 270 270 270 270 270 270 270 271 272 273 273 274 274 275 275 275 275 274
Wind_Speed
23 23 21 22 23 23 23 23 23 24 25 26 27 27 26 25 24 24 23 23 23 22 22 22 23 24 25 27 27 28 29 29 30 30 31 32 33 33 32 31 29 27 25 22 19 14 8 8 2 13 15 15
23 22 21 21 22 22 22 22 22 23 24 25 27 27 27 26 25 24 24 23 23 22 22 22 22 22 23 25 26 27 28 29 30 30 29 30 31 32 32 32 30 27 26 24 21 18 12 10 10 3 11 13
23 22 21 20 21 21 21 21 21 22 24 25 27 27 28 28 27 27 25 24 24 23 24 24 23 22 21 23 24 25 26 27 28 29 29 28 30 31 30 31 31 28 26 25 23 21 17 13 12 9 6 9
23 23 22 21 20 20 21 21 21 22 24 26 27 28 29 29 30 29 27 26 26 25 26 26 24 22 21 21 22 23 24 25 26 27 27 27 27 29 29 30 30 28 27 25 23 22 20 17 14 13 7 2
21 22 22 22 20 19 20 21 21 23 24 24 26 28 29 29 29 29 28 27 26 26 28 27 24 23 22 21 21 21 22 22 24 25 25 26 26 26 28 29 29 28 27 25 24 22 20 18 17 17 12 5
21 22 23 23 21 19 19 21 22 23 24 23 24 26 28 28 28 28 27 26 26 26 27 27 25 23 21 21 20 20 20 20 21 23 23 23 25 25 26 27 28 28 27 26 24 23 20 19 19 19 15 10
23 23 23 23 23 21 21 22 23 23 23 23 23 23 26 27 28 27 26 25 25 25 26 26 26 23 21 21 20 20 20 19 20 21 21 21 22 23 24 26 27 28 28 26 24 23 21 19 20 20 17 13
25 24 23 23 22 21 22 23 24 24 23 23 23 22 23 25 27 26 25 24 24 25 25 25 26 25 23 22 21 21 21 19 19 20 21 20 21 22 23 25 26 27 28 26 24 24 22 20 20 20 18 16
23 22 22 21 21 20 21 22 23 23 23 23 23 21 22 23 25 25 25 23 23 23 24 24 25 24 24 23 21 21 22 21 20 21 21 21 21 21 22 23 25 27 27 27 25 24 23 21 19 20 19 17
19 19 19 19 19 19 20 21 22 22 23 24 23 22 22 23 23 23 24 23 21 21 21 22 22 22 22 22 21 21 21 21 21 21 21 22 22 21 21 21 23 25 26 26 26 24 23 21 19 19 19 18
16 16 17 17 17 19 20 20 22 22 23 24 23 23 23 23 22 21 21 22 21 19 19 19 19 20 20 20 20 21 21 22 22 21 22 22 23 22 21 21 21 22 24 25 26 25 23 22 21 19 19 19
16 16 16 17 18 19 20 21 22 23 24 24 24 24 23 24 23 21 20 20 20 18 16 16 16 17 18 18 19 20 20 21 22 22 22 22 23 24 23 23 22 21 23 25 25 25 24 22 21 20 20 19
17 18 18 19 20 21 22 22 23 24 24 24 23 23 23 23 23 22 19 18 18 16 13 13 13 14 16 17 17 19 19 20 21 23 23 23 23 24 25 24 24 23 23 24 25 25 25 23 21 20 20 20
19 19 20 21 21 22 22 23 23 23 23 23 23 23 22 22 21 21 19 16 15 13 11 11 12 11 12 15 16 17 18 19 20 21 23 23 23 24 25 25 25 25 24 24 25 25 25 24 22 20 19 20
19 19 20 21 21 22 22 23 22 22 22 22 22 21 20 19 18 17 16 13 11 11 11 10 10 9 10 13 15 16 17 18 19 20 21 23 23 24 24 25 25 25 26 26 25 25 25 25 23 21 20 20
18 19 20 20 21 21 21 21 21 22 22 22 21 19 17 16 14 13 11 9 9 10 10 9 7 8 9 11 13 16 17 18 19 19 20 21 23 23 23 25 25 25 26 27 26 26 26 25 24 22 21 20
18 19 19 19 20 20 21 21 21 22 22 21 20 18 16 15 14 12 10 8 8 7 6 6 5 6 8 10 12 14 17 18 19 20 21 21 23 24 23 24 26 26 27 27 28 28 26 26 25 23 23 21
18 18 19 19 19 20 21 21 22 22 22 20 19 18 17 16 16 15 13 10 8 7 6 5 6 6 8 10 11 13 16 18 19 21 21 21 22 23 24 24 25 26 27 28 29 29 28 26 26 25 24 22
18 18 18 19 19 20 21 22 22 22 21 20 19 19 18 18 18 17 16 14 11 10 9 8 8 8 9 10 11 12 14 17 20 21 21 22 22 23 24 24 24 25 25 27 28 30 29 28 27 26 25 24
19 18 18 19 21 21 22 22 22 22 21 20 19 19 19 19 17 16 16 16 14 13 12 11 11 10 11 11 12 13 14 16 19 21 22 23 22 22 23 25 26 25 24 26 28 30 31 30 28 26 25 25
19 19 19 21 22 22 23 22 22 21 21 20 19 19 19 17 15 14 15 15 15 14 14 14 14 14 13 13 14 15 16 16 17 20 23 24 24 22 22 24 25 25 25 25 27 29 31 30 28 26 26 26
19 20 20 22 23 23 23 22 20 20 20 19 18 16 15 13 12 12 13 13 14 14 15 15 15 15 15 15 16 16 17 17 17 18 21 25 25 23 23 22 22 24 25 24 25 28 28 27 27 26 26 26
20 20 22 23 23 23 21 19 19 18 18 17 14 11 9 9 10 11 12 12 13 14 14 15 16 16 16 17 17 17 18 18 19 18 19 22 25 24 23 21 20 21 23 24 24 24 24 24 25 25 25 23
20 20 22 22 22 21 19 17 17 16 16 14 10 9 9 10 11 12 13 13 14 14 14 15 15 16 17 18 19 19 18 18 19 18 18 19 20 23 23 22 20 19 21 24 22 20 20 21 22 22 20 16
19 20 20 20 20 18 17 17 17 16 15 11 9 10 11 12 13 14 15 15 15 15 14 14 15 17 18 18 18 18 17 17 17 16 17 16 16 18 20 21 19 18 20 18 16 15 17 20 18 13 10 7
19 18 18 18 18 17 16 17 17 17 15 10 10 13 14 14 15 15 15 15 15 15 14 14 15 17 17 16 16 15 15 15 15 14 14 14 15 14 15 17 16 17 17 12 12 13 10 12 10 4 4 3
19 18 17 17 17 15 15 17 17 16 15 11 11 14 15 15 14 14 14 15 14 12 11 13 14 14 12 11 12 13 15 14 14 13 12 12 13 13 12 12 13 14 13 12 14 11 5 5 4 2 4 7
19 18 17 17 16 15 16 18 17 16 15 11 12 14 15 14 13 12 14 14 11 9 9 10 11 9 8 9 11 13 14 14 13 12 11 11 11 12 12 11 11 11 11 14 13 7 3 4 3 0 3 12
18 17 17 17 16 16 16 17 16 16 15 11 11 14 14 14 13 13 14 12 8 6 7 8 7 7 8 11 13 13 12 12 12 11 10 10 10 11 11 10 11 11 12 13 11 6 4 2 2 1 6 12
18 17 18 17 16 16 16 17 17 17 15 13 13 14 14 14 14 15 14 9 5 5 6 7 7 8 11 13 13 11 11 10 10 10 10 11 11 10 10 11 12 12 12 10 9 8 6 5 6 6 8 7
18 18 18 18 17 18 18 19 20 18 16 16 15 13 13 14 15 15 12 7 6 6 7 8 9 11 13 13 11 9 9 9 9 9 10 11 11 10 11 12 12 11 10 8 7 8 8 11 12 11 8 4
Wind_Direction
348 351 356 357 356 359 0 2 2 2 2 1 2 360 359 358 357 354 355 357 356 356 353 348 347 348 348 344 345 346 346 346 347 348 350 352 354 356 358 359 0 1 3 2 2 3 13 53 138 224 221 214
348 349 353 353 353 356 357 359 360 0 1 0 0 0 360 358 356 353 354 354 353 355 355 352 346 346 348 345 345 347 348 349 348 347 347 350 351 353 356 357 357 359 2 1 1 6 8 29 58 150 215 211
347 346 348 349 349 352 352 355 356 357 358 357 358 359 359 357 355 354 353 353 351 351 352 352 350 347 348 347 346 348 350 351 349 348 346 347 349 350 351 352 355 357 0 2 360 5 13 15 36 79 169 205
342 340 340 341 345 349 348 349 350 350 351 353 356 356 356 355 354 354 354 353 350 349 348 350 351 349 349 348 348 348 350 352 350 348 348 348 347 347 349 348 350 354 358 3 2 2 12 15 23 53 80 179
334 333 331 331 336 342 342 341 342 341 343 348 353 352 352 352 352 352 353 355 353 349 347 348 350 349 349 348 348 348 346 347 350 349 349 351 348 343 344 345 345 349 354 359 4 4 7 15 20 30 43 45
325 324 324 325 326 330 332 332 333 334 337 341 347 349 348 348 349 349 349 352 354 351 347 347 350 350 349 346 345 345 339 339 346 348 346 347 347 341 338 340 344 346 350 354 359 2 4 11 17 19 25 33
320 319 320 322 320 320 323 326 327 328 331 334 338 343 344 344 343 344 344 347 349 350 349 348 349 350 351 347 345 343 337 336 341 343 342 343 342 340 339 340 344 345 346 350 354 359 2 6 12 14 16 20
320 320 320 320 318 316 319 323 324 325 326 329 330 333 339 339 338 338 338 341 342 345 348 349 349 349 352 352 350 346 341 339 341 341 339 340 341 341 345 346 345 344 343 345 348 354 359 1 4 9 11 11
321 322 322 320 319 317 320 322 323 324 325 326 324 324 329 330 331 332 332 335 338 340 343 347 349 350 353 354 356 353 349 348 346 346 345 344 344 345 348 350 349 347 344 342 342 347 353 356 357 2 6 4
323 323 322 322 322 322 323 324 324 324 324 325 321 316 318 319 321 326 327 329 332 335 337 343 348 350 352 354 358 359 355 354 352 350 351 350 349 349 347 348 349 349 348 345 341 339 343 349 351 354 359 359
321 321 321 322 323 324 324 324 325 325 324 324 320 313 311 311 311 316 322 323 326 329 332 339 344 347 351 353 356 360 358 356 356 354 352 351 351 350 346 345 345 345 346 347 345 339 335 339 343 346 351 353
317 318 319 320 320 321 322 324 325 325 325 321 318 315 312 310 305 306 314 318 319 321 327 336 343 342 344 351 353 356 358 358 358 358 356 353 351 349 348 345 343 342 342 343 345 343 337 332 333 336 340 344
313 314 315 317 318 321 322 323 324 323 323 321 320 319 317 314 307 303 305 312 314 315 323 328 336 338 336 344 350 351 356 360 358 357 357 355 352 350 348 346 344 342 339 339 340 341 341 336 330 327 328 332
308 310 312 316 318 321 321 321 322 322 321 321 322 321 321 318 313 307 302 308 312 311 317 317 322 330 333 337 343 349 353 356 356 353 354 355 353 351 348 347 345 341 337 336 336 336 338 338 334 327 321 321
304 307 310 314 316 317 318 319 319 319 319 318 318 319 321 321 318 313 304 301 304 303 307 308 312 321 328 330 335 344 348 351 353 351 351 351 353 353 350 346 345 342 337 334 334 333 333 334 333 331 323 315
303 306 309 311 313 314 314 315 316 316 316 314 313 314 319 323 324 322 313 303 302 307 309 306 306 316 327 331 330 335 342 346 347 349 349 347 348 351 350 346 344 342 338 334 333 331 330 329 328 328 325 318
303 305 308 310 312 313 313 313 313 314 313 310 309 308 313 322 326 327 327 323 322 323 320 319 322 323 330 335 333 329 333 339 342 345 348 348 346 346 348 346 344 342 338 334 332 331 330 327 325 323 322 319
303 306 308 310 311 312 311 311 311 311 309 307 306 305 306 314 320 319 319 323 329 332 329 331 336 335 333 334 336 332 328 331 338 341 343 347 347 344 345 344 342 341 337 334 330 329 329 327 323 320 318 316
303 306 307 309 310 311 310 309 309 308 305 303 305 304 303 309 313 310 308 310 314 322 325 325 329 334 335 331 331 334 331 328 331 335 338 342 345 343 341 339 339 338 335 333 329 326 326 325 322 319 315 312
302 304 306 308 309 309 308 308 306 304 302 302 303 304 305 306 308 303 301 301 301 307 312 318 324 327 331 329 326 330 332 330 327 329 332 335 339 340 338 335 334 333 331 329 327 324 321 321 321 318 314 311
301 303 305 307 309 307 307 306 304 302 300 301 302 302 305 304 300 294 293 294 294 297 302 308 314 319 325 325 326 326 327 331 329 326 327 327 331 334 333 332 330 329 328 325 323 322 320 319 318 315 312 311
300 302 305 307 307 305 305 304 302 301 301 303 304 303 302 296 290 286 285 289 291 293 297 302 306 311 317 319 322 323 323 326 328 326 324 322 324 326 327 329 328 326 326 324 321 319 318 317 314 311 310 310
299 301 304 306 306 305 305 303 302 304 306 307 306 300 292 285 286 289 288 290 294 296 298 302 304 307 311 315 318 321 322 322 324 326 324 321 321 321 321 323 323 324 324 323 321 318 316 315 312 309 307 307
296 300 304 307 308 308 305 303 304 306 307 307 301 289 282 286 291 295 296 297 300 301 303 304 304 305 308 312 316 320 323 322 323 324 324 323 320 318 318 320 323 326 326 324 321 320 319 317 316 312 306 300
293 298 303 306 306 306 304 303 304 305 307 305 291 283 281 288 294 297 300 300 301 303 304 304 302 304 308 311 316 319 321 322 324 324 323 324 323 321 321 323 327 331 332 330 328 328 324 327 328 320 310 298
291 296 299 301 300 300 300 301 303 302 306 302 284 283 285 289 294 296 298 298 301 302 301 301 302 307 310 312 315 315 317 321 324 326 328 331 332 332 328 325 330 336 340 341 335 330 323 336 347 337 318 299
289 294 296 295 294 295 295 297 300 297 300 296 279 280 285 290 295 296 297 298 299 298 298 303 307 310 311 311 315 316 319 322 326 330 336 343 344 346 341 335 338 344 349 347 340 335 318 338 359 357 343 320
288 291 292 292 289 290 290 294 295 291 292 287 271 275 283 292 299 298 298 301 298 293 299 307 311 313 310 313 319 320 322 324 327 332 335 343 349 352 351 349 349 347 345 344 343 338 311 346 354 311 12 336
285 286 286 287 285 285 287 290 288 285 285 278 268 275 284 292 297 295 298 301 294 290 301 307 310 309 307 314 319 320 322 322 325 330 332 336 340 344 348 348 347 346 343 341 339 327 304 338 359 289 350 341
281 280 280 280 277 278 281 281 280 279 277 274 274 278 285 290 289 291 296 294 282 285 296 299 299 300 303 310 315 318 321 320 324 330 330 333 335 335 336 337 340 341 345 347 340 333 304 286 304 310 336 344
275 273 274 273 270 273 275 274 276 277 275 277 280 279 281 283 285 291 293 281 270 276 281 285 289 294 300 307 312 316 317 316 321 324 321 323 327 326 324 329 332 330 340 346 335 334 321 306 308 305 308 306